Location: Sungai Igah
(2.7333°N, 114.2500°E)
Time: 19:17:02
(UTC+00:00)

Cosmos 1908 Rocket - Pass Details

Date: 14 June 2021
Orbit: 605 x 633 km, 82.5° (Epoch: 25 July)

Event Time Altitude Azimuth Distance (km) Brightness Sun altitude
Rises 12:05:38 0° 351° (N) 2,849 7.5 -22.2°
Reaches altitude 10° 12:07:51 10° 348° (NNW) 1,946 6.6 -22.6°
Maximum altitude 12:12:07 65° 267° (W) 665 3.8 -23.6°
Enters shadow 12:13:20 43° 204° (SSW) 849 4.1 -23.9°
